Simultaneous Nadir Overpasses (SNOs) Predictions

Prediction of SNOs between GOES-14 and AQUA Satellite Orbit:

Table of predicted SNOs for the next 14.0 days since TLE Epoch: 3/1/2019
Index Date Time (GOES-14) GOES-14 Lat,Lon AQUA Lat,Lon Distance(km) Time Diff (sec)
1 03/01/2019 20:24:14 -0.05,-104.23 0.34,-102.47 200.08 80
2 03/02/2019 08:45:29 0.06,-104.39 0.73,-107.63 368.09 80
3 03/04/2019 08:33:18 0.06,-104.40 0.12,-104.67 31.21 80
4 03/06/2019 08:23:47 0.06,-104.41 -0.49,-101.71 305.78 80
5 03/06/2019 20:45:11 -0.07,-104.25 -0.63,-106.90 301.20 80
6 03/08/2019 20:30:20 -0.07,-104.26 -0.01,-103.94 35.69 80
7 03/10/2019 20:18:09 -0.07,-104.26 0.61,-100.98 372.57 80
8 03/11/2019 08:39:26 0.07,-104.41 0.42,-106.15 197.29 80
9 03/13/2019 08:29:55 0.07,-104.42 -0.20,-103.19 139.47 80
10 03/13/2019 20:51:18 -0.08,-104.28 -0.96,-108.37 465.54 80
11 03/15/2019 08:17:44 0.08,-104.42 -0.82,-100.23 475.94 80




NCC Satellite Simultaneous Nadir Overpasses (SNOs) Prediction Service
